Weather History for PAEG - June, 2013

Change the Weather History Date:

Saturday, June 22, 2013

  Actual Average Record
Temperature  
Mean Temperature 58 °F -  
Max Temperature 75 °F - - ()
Min Temperature 42 °F - - ()
Degree Days  
Heating Degree Days 6    
Growing Degree Days 8 (Base 50)    
Moisture  
Dew Point 46 °F    
Average Humidity 73    
Maximum Humidity 94    
Minimum Humidity 32    
Precipitation  
Precipitation 0.00 in - - ()
Sea Level Pressure  
Sea Level Pressure 29.83 in    
Wind  
Wind Speed 1 mph (ESE)    
Max Wind Speed 12 mph    
Max Gust Speed 23 mph    
Visibility 8 miles    
Events      
T = Trace of Precipitation, MM = Missing Value Source: NWS Daily Summary

Daily Weather History Graph

Daily Weather History Graph

Search for Another Location

Airport or City:

Trip Planner

Search our weather history database for the weather conditions in past years. The results will help you decide how hot, cold, wet, or windy it might be!

Date:

Astronomy

Jun. 22, 2013 Rise Set
Actual Time 2:33 AM AKDT 12:19 AM AKDT
Civil Twilight Sun does not set Sun does not set
Nautical Twilight Sun does not set Sun does not set
Astronomical Twilight Sun does not set Sun does not set
Moon 10:37 PM AKDT (6/22) 2:57 AM AKDT (6/22)
Length of Visible Light 24h 00m
Length of Day
21h 45m
Waxing Gibbous, 99% of the Moon is Illuminated
Jun 22
Waxing Gibbous
Jun 23
Full
Jun 29
Last Quarter
Jul 7
New
Jul 15
First Quarter

Hourly Weather History & Observations

Time (AKDT) Temp. Dew Point Humidity Pressure Visibility Wind Dir Wind Speed Gust Speed Precip Events Conditions
12:53 AM 48.0 °F 46.0 °F 93% 29.89 in 10.0 mi Calm Calm - N/A   Clear
1:00 AM 48.2 °F 46.4 °F 93% 29.88 in 10.0 mi Calm Calm - N/A   Scattered Clouds
1:53 AM 46.0 °F 44.1 °F 93% 29.89 in 8.0 mi Calm Calm - N/A   Partly Cloudy
2:34 AM 42.8 °F 41.0 °F 93% 29.88 in 1.8 mi Calm Calm - N/A   Scattered Clouds
2:41 AM 42.8 °F 41.0 °F 93% 29.88 in 0.8 mi Calm Calm - N/A   Mist
2:53 AM 43.0 °F 41.0 °F 93% 29.90 in 0.8 mi Calm Calm - N/A   Mist
2:56 AM 42.8 °F 41.0 °F 93% 29.88 in 1.5 mi Calm Calm - N/A   Partly Cloudy
2:58 AM 42.8 °F 41.0 °F 93% 29.88 in 4.0 mi Calm Calm - N/A   Partly Cloudy
3:53 AM 42.1 °F 39.9 °F 92% 29.90 in 8.0 mi Calm Calm - N/A   Clear
4:03 AM 42.8 °F 39.2 °F 87% 29.89 in 9.0 mi Calm Calm - N/A   Scattered Clouds
4:25 AM 42.8 °F 41.0 °F 93% 29.89 in 4.0 mi Calm Calm - N/A   Mostly Cloudy
4:32 AM 42.8 °F 41.0 °F 93% 29.89 in 2.0 mi Calm Calm - N/A   Mostly Cloudy
4:42 AM 44.6 °F 42.8 °F 93% 29.89 in 9.0 mi Calm Calm - N/A   Mostly Cloudy
4:53 AM 44.1 °F 42.1 °F 93% 29.90 in 10.0 mi Calm Calm - N/A   Overcast
5:49 AM 48.2 °F 46.4 °F 93% 29.89 in 10.0 mi Calm Calm - N/A   Overcast
5:53 AM 50.0 °F 46.9 °F 89% 29.89 in 10.0 mi Calm Calm - N/A   Overcast
6:32 AM 50.0 °F 48.2 °F 94% 29.89 in 2.0 mi Calm Calm - N/A   Overcast
6:42 AM 51.8 °F 48.2 °F 88% 29.88 in 8.0 mi Calm Calm - N/A   Overcast
6:53 AM 52.0 °F 48.9 °F 89% 29.88 in 6.0 mi Calm Calm - N/A   Overcast
7:53 AM 54.0 °F 51.1 °F 90% 29.88 in 10.0 mi Calm Calm - N/A   Overcast
8:09 AM 55.4 °F 53.6 °F 94% 29.87 in 10.0 mi Calm Calm - N/A   Overcast
8:41 AM 57.2 °F 53.6 °F 88% 29.86 in 10.0 mi Calm Calm - N/A   Scattered Clouds
8:53 AM 60.1 °F 54.0 °F 80% 29.86 in 10.0 mi Calm Calm - N/A   Partly Cloudy
9:53 AM 64.9 °F 55.0 °F 70% 29.84 in 10.0 mi NE 4.6 mph - N/A   Partly Cloudy
10:53 AM 70.0 °F 55.0 °F 59% 29.81 in 10.0 mi Variable 3.5 mph - N/A   Clear
11:53 AM 75.9 °F 46.0 °F 35% 29.79 in 10.0 mi SSE 8.1 mph - N/A   Clear
12:53 PM 71.1 °F 46.9 °F 42% 29.78 in 10.0 mi Variable 4.6 mph - N/A   Partly Cloudy
1:53 PM 75.0 °F 43.0 °F 32% 29.76 in 10.0 mi SE 10.4 mph 23.0 mph N/A   Clear
2:53 PM 66.9 °F 42.1 °F 40% 29.81 in 10.0 mi Variable 4.6 mph 18.4 mph N/A   Partly Cloudy
3:53 PM 64.9 °F 45.0 °F 48% 29.79 in 10.0 mi ESE 6.9 mph 21.9 mph N/A   Partly Cloudy
4:53 PM 73.0 °F 46.9 °F 39% 29.75 in 10.0 mi East 8.1 mph - N/A   Clear
5:53 PM 73.9 °F 44.1 °F 34% 29.73 in 10.0 mi SE 11.5 mph 20.7 mph N/A   Clear
6:53 PM 73.0 °F 44.1 °F 35% 29.71 in 10.0 mi SE 8.1 mph 18.4 mph N/A   Clear
7:53 PM 73.0 °F 44.1 °F 35% 29.70 in 10.0 mi SE 6.9 mph - N/A   Clear
8:53 PM 72.0 °F 46.0 °F 40% 29.69 in 10.0 mi Variable 4.6 mph - N/A   Clear
9:53 PM 70.0 °F 46.9 °F 44% 29.69 in 10.0 mi Calm Calm - N/A   Clear
10:53 PM 64.9 °F 46.9 °F 52% 29.69 in 10.0 mi East 3.5 mph - N/A   Clear
11:53 PM 55.0 °F 46.9 °F 74% 29.70 in 10.0 mi Calm Calm - N/A   Clear